Location: Battlefield Observatory
(36.7579°N, 76.2613°W)
Time: 01:20:58
(UTC-04:00)

Envisat - Pass Details

Date: 25 June 2018
Orbit: 764 x 766 km, 98.2° (Epoch: 23 September)

Event Time Altitude Azimuth Distance (km) Brightness Sun altitude
Rises 21:32:28 0° 207° (SSW) 3,215 6.1 -11.3°
Reaches altitude 10° 21:35:33 10° 227° (SW) 2,294 5.5 -11.8°
Maximum altitude 21:38:48 17° 267° (W) 1,852 5.6 -12.3°
Drops below altitude 10° 21:42:05 10° 308° (NW) 2,305 7.0 -12.8°
Sets 21:45:12 0° 328° (NNW) 3,236 7.9 -13.2°
